Toledo Metcalf, OH

9:14 AM EDT on April 30, 2017 (GMT -0400)
Metcalf

Weather History for KTDZ - January, 2014

Change the Weather History Date:

Monday, January 20, 2014

  Actual Average (KTOL) Record (KTOL)
Temperature  
Mean Temperature 24 °F -  
Max Temperature 34 °F 29 °F 67 °F (1906)
Min Temperature 14 °F 15 °F -17 °F (1985)
Degree Days  
Heating Degree Days 40    
Moisture  
Dew Point 19 °F    
Average Humidity 72    
Maximum Humidity 81    
Minimum Humidity 59    
Precipitation  
Precipitation 0.00 in - - ()
Sea Level Pressure  
Sea Level Pressure 29.83 in    
Wind  
Wind Speed 12 mph (NNW)    
Max Wind Speed 16 mph    
Max Gust Speed 24 mph    
Visibility 8 miles    
Events Snow    
Averages and records for this station are not official NWS values.
T = Trace of Precipitation, MM = Missing Value Source: NWS Daily Summary

Daily Weather History Graph

Daily Weather History Graph

Search for Another Location

Airport or City:

Trip Planner

Search our weather history database for the weather conditions in past years. The results will help you decide how hot, cold, wet, or windy it might be!

Date:

Astronomy

Jan. 20, 2014 Rise Set
Actual Time 7:55 AM EST 5:34 PM EST
Civil Twilight 7:25 AM EST 6:05 PM EST
Nautical Twilight 6:51 AM EST 6:39 PM EST
Astronomical Twilight 6:18 AM EST 7:12 PM EST
Moon 10:12 PM EST (1/20) 9:51 AM EST (1/20)
Length of Visible Light 10h 39m
Length of Day
9h 39m
Waning Gibbous, 83% of the Moon is Illuminated
Jan 20
Waning Gibbous
Jan 24
Last Quarter
Jan 30
New
Feb 6
First Quarter
Feb 14
Full

Hourly Weather History & Observations

Time (EST) Temp. Windchill Dew Point Humidity Pressure Visibility Wind Dir Wind Speed Gust Speed Precip Events Conditions
12:53 AM 30.9 °F 19.8 °F 23.0 °F 72% 29.57 in 10.0 mi SW 16.1 mph - N/A   Overcast
1:53 AM 33.1 °F 22.6 °F 24.1 °F 70% 29.56 in 10.0 mi SW 16.1 mph - N/A   Overcast
2:53 AM 34.0 °F 24.6 °F 24.1 °F 67% 29.57 in 10.0 mi SW 13.8 mph - N/A   Overcast
3:53 AM 34.0 °F 25.5 °F 25.0 °F 70% 29.59 in 10.0 mi SW 11.5 mph - N/A   Overcast
4:26 AM 33.8 °F 25.3 °F 24.8 °F 70% 29.59 in 10.0 mi WSW 11.5 mph - N/A   Overcast
4:53 AM 34.0 °F 26.0 °F 25.0 °F 70% 29.62 in 10.0 mi WSW 10.4 mph - N/A   Overcast
5:31 AM 33.8 °F 27.0 °F 24.8 °F 70% 29.61 in 10.0 mi WSW 8.1 mph - N/A   Overcast
5:53 AM 33.1 °F 26.1 °F 26.1 °F 75% 29.65 in 10.0 mi West 8.1 mph - N/A   Overcast
6:01 AM 33.8 °F 27.7 °F 26.6 °F 75% 29.64 in 10.0 mi West 6.9 mph - N/A   Overcast
6:41 AM 33.8 °F 24.8 °F 26.6 °F 75% 29.65 in 10.0 mi NW 12.7 mph - N/A   Overcast
6:53 AM 34.0 °F 26.0 °F 27.0 °F 75% 29.68 in 9.0 mi NW 10.4 mph - N/A   Overcast
7:40 AM 33.8 °F 25.8 °F 26.6 °F 75% 29.69 in 8.0 mi NW 10.4 mph - N/A   Overcast
7:53 AM 33.1 °F 26.1 °F 26.1 °F 75% 29.72 in 8.0 mi NW 8.1 mph - N/A   Overcast
8:53 AM 33.1 °F 26.1 °F 27.0 °F 78% 29.76 in 6.0 mi NW 8.1 mph - N/A   Haze
9:53 AM 30.9 °F 21.7 °F 23.0 °F 72% 29.81 in 10.0 mi NNW 11.5 mph - N/A   Overcast
10:17 AM 30.2 °F 21.9 °F 24.8 °F 80% 29.80 in 10.0 mi NW 9.2 mph - N/A   Overcast
10:53 AM 28.9 °F 17.7 °F 21.9 °F 75% 29.86 in 10.0 mi NW 15.0 mph - N/A   Overcast
11:25 AM 28.4 °F 18.5 °F 19.4 °F 69% 29.84 in 10.0 mi NNW 11.5 mph - N/A   Overcast
11:53 AM 28.0 °F 18.1 °F 19.0 °F 69% 29.87 in 10.0 mi NNW 11.5 mph - N/A   Overcast
12:53 PM 28.9 °F 20.4 °F 19.0 °F 67% 29.87 in 10.0 mi NW 9.2 mph - N/A   Overcast
1:53 PM 30.0 °F 20.5 °F 19.0 °F 64% 29.88 in 10.0 mi West 11.5 mph - N/A   Overcast
2:53 PM 30.9 °F 22.8 °F 19.0 °F 61% 29.88 in 10.0 mi West 9.2 mph - N/A   Overcast
3:53 PM 32.0 °F 24.2 °F 19.0 °F 59% 29.90 in 10.0 mi WNW 9.2 mph - N/A   Mostly Cloudy
4:53 PM 30.9 °F 25.2 °F 19.9 °F 64% 29.91 in 10.0 mi NW 5.8 mph - N/A   Overcast
5:53 PM 28.0 °F 20.8 °F 19.0 °F 69% 29.94 in 10.0 mi ENE 6.9 mph - N/A   Overcast
6:43 PM 26.6 °F 19.1 °F 17.6 °F 69% 29.94 in 10.0 mi ENE 6.9 mph - N/A   Overcast
6:53 PM 27.0 °F 19.5 °F 17.1 °F 66% 29.96 in 10.0 mi ENE 6.9 mph - N/A   Overcast
7:53 PM 21.9 °F 9.8 °F 12.9 °F 68% 29.99 in 10.0 mi ENE 12.7 mph - N/A   Overcast
8:53 PM 21.0 °F 9.3 °F 12.9 °F 71% 30.00 in 9.0 mi NE 11.5 mph - 0.00 in Snow Light Snow
9:53 PM 18.0 °F 3.6 °F 12.9 °F 81% 30.02 in 2.5 mi NE 15.0 mph 20.7 mph 0.00 in Snow Light Snow
10:03 PM 17.6 °F 5.0 °F 12.2 °F 79% 30.00 in 1.5 mi NE 11.5 mph 21.9 mph 0.00 in Snow Light Snow
10:13 PM 17.6 °F 4.3 °F 12.2 °F 79% 30.01 in 1.5 mi NE 12.7 mph - 0.00 in Snow Light Snow
10:20 PM 17.6 °F 3.7 °F 12.2 °F 79% 30.01 in 1.2 mi NE 13.8 mph 20.7 mph 0.00 in Snow Light Snow
10:27 PM 15.8 °F 2.1 °F 10.4 °F 79% 30.01 in 1.2 mi NE 12.7 mph 20.7 mph 0.00 in Snow Light Snow
10:44 PM 15.8 °F 2.7 °F 10.4 °F 79% 30.02 in 1.0 mi NE 11.5 mph 24.2 mph 0.00 in Snow Light Snow
10:53 PM 16.0 °F 1.7 °F 10.9 °F 81% 30.05 in 1.2 mi NE 13.8 mph 21.9 mph 0.00 in Snow Light Snow
11:34 PM 15.8 °F 3.4 °F 8.6 °F 73% 30.01 in 1.8 mi NE 10.4 mph 18.4 mph 0.00 in Snow Light Snow
11:42 PM 15.8 °F 3.4 °F 8.6 °F 73% 30.01 in 2.0 mi NE 10.4 mph - 0.00 in Snow Light Snow
11:53 PM 14.0 °F 0.5 °F 9.0 °F 80% 30.04 in 2.0 mi NE 11.5 mph 24.2 mph 0.00 in Snow Light Snow